SCP
0 0 0 0 0 0 0 0 0 0 0 0 0 0 0 0 0 0 0 0 0 0 0 0 0 0 0 0 0 0 0 0 0 0 0 0 0 0 0 0 0 0 0 0
0 0 0 0 0 0 0 0 0 0 0 0 0 0 0 0 0 0 0 0 0 0 0 0 0 0 0 0 0 0 0 0 0 0 0 0 0 0 0 0 0 0 0 0
0 0 0 0 0 0 0 0 0 0 0 0 0 0 0 0 0 0 0 0 0 0 0 0 0 0 0 0 0 0 0 0 0 0 0 0 0 0 0 0 0 0 0 0
0 0 0 0 0 0 0 0 0 0 0 0 0 0 0 0 0 0 0 0 0 0 0 0 0 0 0 0 0 0 0 0 0 0 0 0 0 0 0 0 0 0 0 0
0 0 0 0 0 0 0 0 0 0 0 0 0 0 0 0 0 0 0 0 0 0 0 0 0 0 0 0 0 0 0 0 0 0 0 0 0 0 0 0 0 0 0 -0
0 0 0 0 0 0 0 0 0 0 0 0 0 0 0 0 0 0 0 0 0 0 0 0 0 0 0 0 0 0 0 0 0 -0 -0 0 -0 0 0 0 0 0 0 0
0 0 0 0 0 0 0 0 0 0 0 0 0 0 0 0 0 0 0 0 0 0 0 0 0 0 0 0 0 0 0 0 0 0 -0 -0 -0 0 0 0 0 0 0 0
0 0 0 0 0 0 0 0 0 0 0 0 0 0 0 0 0 0 0 0 0 0 0 0 0 0 0 0 0 0 0 0 0 0 0 0 -0 0 0 0 0 0 0 0
0 0 0 0 0 0 0 0 0 0 0 0 0 0 0 0 0 0 0 0 0 0 0 0 0 0 0 0 0 0 0 0 0 0 0 -0 -0 0 -0 -0 0 0 0 0
0 0 0 0 0 0 0 0 0 0 0 0 0 0 0 0 0 0 0 0 0 0 0 0 0 0 0 0 0 0 0 0 0 0 0 0 0 0 0 0 -0 0 0 0
0 0 0 0 0 0 0 0 0 0 0 0 0 0 0 0 0 0 0 0 0 0 0 0 0 0 0 0 0 0 0 0 0 0 0 -0 0 0 0 0 0 0 0 0
0 0 0 0 0 0 0 0 0 0 0 0 0 0 0 0 0 0 0 0 0 0 0 0 0 0 0 0 0 0 0 0 0 0 0 0 0 0 0 0 0 0 0 -0
0 0 0 0 0 0 0 0 0 0 0 0 0 0 0 0 0 0 0 0 0 0 0 0 0 0 0 0 0 0 0 0 0 0 0 0 0 0 0 0 0 0 0 0
0 0 0 0 0 0 0 0 0 0 0 0 0 0 0 0 0 0 0 0 0 0 0 0 0 0 0 0 0 0 0 0 0 0 0 0 0 0 0 0 0 0 0 0
0 0 0 0 0 0 0 0 0 0 0 0 0 0 0 0 0 0 0 0 0 0 0 0 0 0 0 0 0 0 0 0 0 0 0 0 0 0 -0 -0 0 0 0 0
0 0 0 0 0 0 0 0 0 0 0 0 0 0 0 0 0 0 0 0 0 0 0 0 0 0 0 0 0 0 0 0 0 0 0 -0 -0 -0 -0 -0 -0 -0 -0 -0
0 0 0 0 0 0 0 0 0 0 0 0 0 0 0 0 0 0 0 0 0 0 0 0 0 0 0 0 0 0 0 0 0 0 0 0 0 -0 0 -0 0 -0 0 0
0 0 0 0 0 0 0 0 0 0 0 0 0 0 0 0 0 0 0 0 0 0 0 0 0 0 0 0 0 0 0 0 0 0 0 0 0 0 0 0 -0 -0 0 0
0 0 0 0 0 0 0 0 0 0 0 0 0 0 0 0 0 0 0 0 0 0 0 0 0 0 0 0 0 0 0 0 0 0 0 0 0 0 0 0 0 0 0 -0
0 0 0 0 0 0 0 0 0 0 0 0 0 0 0 0 0 0 0 0 0 0 0 0 0 0 0 0 0 0 0 0 0 0 0 0 0 0 -0 0 0 0 0 0
0 0 0 0 0 0 0 0 0 0 0 0 0 0 0 0 0 0 0 0 0 0 0 0 0 0 0 0 0 0 0 0 0 0 0 0 0 0 0 0 0 0 0 0
0 0 0 0 0 0 0 0 0 0 0 0 0 0 0 0 0 0 0 0 0 0 0 0 0 0 0 0 0 0 0 0 0 0 0 0 0 0 0 0 0 0 0 0
0 0 0 0 0 0 0 0 0 0 0 0 0 0 0 0 0 0 0 0 0 0 0 0 0 0 0 0 0 0 0 -0 -0 -0 -0 -0 0 0 0 0 0 0 0 0
0 0 0 0 0 0 0 0 0 0 0 0 0 0 0 0 0 0 0 0 0 0 0 0 0 0 0 0 0 0 0 0 -0 -0 -0 -0 0 0 0 0 0 0 0 0
0 0 0 0 0 0 0 0 0 0 0 0 0 0 0 0 0 0 0 0 0 0 0 0 0 0 0 0 0 0 0 0 0 0 -0 0 0 0 0 0 0 0 0 0
0 0 0 0 0 0 0 0 0 0 0 0 0 0 0 0 0 0 0 0 0 0 0 0 0 0 0 0 0 0 0 0 0 0 0 0 0 0 0 0 0 0 0 0
0 0 0 0 0 0 0 0 0 0 0 0 0 0 0 0 0 0 0 0 0 0 0 0 0 0 0 0 0 0 0 0 0 0 0 0 0 0 -0 0 0 0 0 0
Wind_Speed_500mb
22 23 25 22 16 11 15 8 2 13 26 7 5 8 11 3 6 8 6 5 8 14 13 11 6 8 8 7 10 10 4 8 7 5 2 2 3 7 8 7 7 3 2 13
23 22 24 23 18 14 16 7 8 14 31 8 5 6 6 7 4 8 7 8 9 4 11 6 9 6 0 6 9 9 11 1 3 2 2 6 6 7 8 9 5 11 8 11
24 21 24 23 22 19 21 7 2 8 22 10 13 9 8 8 9 10 8 4 5 5 5 4 8 8 2 4 6 8 7 5 11 11 8 9 8 8 8 8 6 8 14 14
26 22 23 28 29 24 23 13 8 8 5 8 12 11 4 9 9 11 9 4 11 13 11 6 8 5 4 0 6 2 8 8 7 10 11 9 10 10 17 19 12 16 6 20
30 25 24 32 35 30 31 9 9 8 5 5 12 10 11 15 6 9 7 9 8 11 13 16 14 13 9 12 3 11 2 5 6 9 2 11 11 17 24 27 7 23 26 45
35 27 23 32 41 40 25 32 11 5 5 8 10 9 14 16 9 10 5 12 7 7 14 10 5 13 8 18 16 14 9 9 6 9 4 8 13 20 21 11 9 17 18 27
39 33 27 26 43 48 43 29 21 10 6 7 10 6 15 13 13 5 2 6 9 4 19 30 28 30 29 21 16 9 11 9 2 6 5 4 11 5 10 18 16 35 23 14
43 38 33 29 35 47 54 41 27 18 5 12 9 11 6 7 5 7 7 9 4 30 11 7 7 7 4 6 9 5 4 8 2 5 7 13 11 8 12 13 16 20 42 29
48 43 36 34 31 40 49 55 39 20 6 14 20 15 18 9 6 3 4 3 15 9 7 5 10 11 11 7 4 7 8 10 7 4 7 10 11 5 12 7 11 6 29 16
51 45 38 35 34 35 43 45 51 36 14 21 21 10 12 17 11 6 4 8 11 8 4 4 6 9 9 10 14 11 6 2 9 4 7 16 14 12 15 1 12 24 12 18
53 48 40 37 34 34 39 48 48 48 34 21 26 25 19 17 15 9 16 10 4 6 2 7 8 8 13 8 9 14 16 15 8 5 4 16 21 15 12 7 12 21 20 12
56 49 42 39 36 35 33 38 49 49 33 17 35 28 27 23 17 17 23 7 8 16 5 2 3 5 3 8 9 1 6 14 12 20 14 5 34 18 21 27 37 36 31 28
60 50 45 42 38 34 33 33 42 40 29 31 43 34 31 40 27 23 11 9 11 6 9 10 5 8 8 8 12 8 8 10 7 4 11 28 45 46 49 48 53 53 50 56
65 49 49 45 38 33 31 31 38 45 15 11 19 29 49 48 38 44 43 34 15 8 8 8 5 5 12 6 6 9 8 17 10 11 19 40 51 24 11 24 26 41 55 46
70 59 54 49 41 33 28 28 34 49 24 10 7 11 18 30 44 50 36 38 36 22 8 3 5 6 5 4 1 7 17 13 9 10 14 6 27 38 49 62 70 67 50 46
74 62 59 50 44 35 25 14 35 47 42 5 3 6 14 21 28 32 36 35 32 25 15 12 13 13 11 7 12 12 46 46 39 32 41 44 54 52 58 63 43 42 39 49
74 63 58 52 44 38 27 11 9 50 41 8 7 7 9 17 20 22 22 26 18 18 10 11 10 11 16 4 31 13 16 31 48 51 55 65 66 58 86 97 103 93 95 96
71 62 58 47 40 34 22 8 17 48 36 11 3 6 4 17 11 11 17 17 19 13 7 6 8 6 10 10 5 12 30 49 64 72 79 90 92 91 94 84 86 88 90 87
75 65 54 42 28 19 24 23 23 38 13 10 7 7 8 17 8 10 12 13 4 7 5 8 11 5 13 10 8 23 36 31 50 61 69 71 77 88 94 86 86 84 88 90
84 75 36 14 24 24 39 25 16 18 14 13 7 9 7 14 8 4 9 4 5 3 9 6 6 7 27 35 39 27 30 45 57 56 59 54 65 70 73 76 76 77 74 75
86 26 18 38 53 28 9 9 10 13 8 19 15 28 9 17 7 6 7 5 6 5 5 6 5 5 6 20 21 20 21 26 33 37 45 54 62 77 84 88 86 92 85 75
55 42 65 61 14 12 8 8 4 9 13 20 18 19 12 15 9 10 8 6 4 7 14 5 6 7 4 16 20 21 22 25 33 35 41 45 50 54 62 72 83 85 88 83
86 28 18 17 13 10 15 18 10 8 17 28 29 14 16 11 7 8 5 8 7 14 5 7 8 10 2 9 19 25 29 37 41 44 46 49 50 48 52 61 60 70 77 77
17 18 14 12 11 13 11 9 10 18 30 53 53 19 11 8 7 5 8 6 5 7 7 11 5 16 5 6 16 29 37 41 45 52 54 55 55 58 53 49 48 51 64 69
14 17 13 16 17 11 18 20 26 29 62 60 32 14 10 5 8 6 4 7 9 11 9 6 19 10 10 13 19 29 37 41 44 50 57 57 55 57 59 48 45 41 46 53
20 14 9 6 14 8 22 28 36 55 59 49 12 8 9 6 6 8 11 8 14 8 7 21 17 6 3 14 21 27 35 39 43 44 50 58 58 55 56 49 43 38 36 38
13 5 18 18 11 18 32 37 43 60 57 6 8 10 9 7 6 8 9 10 6 20 29 24 11 4 12 15 21 27 32 38 43 45 46 48 57 54 55 57 53 45 36 30
Wind_Direction_500mb
260 250 248 246 249 268 229 214 223 191 175 127 125 168 203 243 261 210 254 174 178 190 167 176 228 213 203 154 164 160 193 134 185 198 332 135 213 188 162 126 212 61 121 270
265 251 239 233 233 233 193 230 226 188 185 161 221 253 257 237 233 222 206 226 199 193 178 182 192 192 23 171 155 167 189 251 11 305 12 357 234 196 121 110 102 203 153 261
264 254 235 220 219 211 196 217 193 186 198 178 146 164 230 214 222 240 220 198 138 135 184 241 176 184 175 186 184 151 138 154 187 202 199 130 190 190 192 146 148 183 230 280
255 251 230 213 211 205 197 210 250 183 211 231 161 165 188 187 210 214 204 223 206 183 189 170 197 133 132 58 161 71 135 220 187 258 234 187 214 185 182 204 200 203 255 219
247 243 228 211 206 201 209 207 182 188 166 148 149 164 218 188 215 180 236 196 227 198 187 188 206 149 193 199 165 170 301 198 155 281 123 199 255 234 208 221 242 270 280 277
240 235 230 213 205 203 207 218 219 186 174 150 127 213 203 205 183 223 223 211 166 189 237 228 218 183 132 159 152 174 163 148 127 264 0 304 280 233 188 182 213 203 218 245
235 227 228 221 210 207 206 209 211 202 246 181 196 182 197 214 216 232 174 197 169 223 130 110 98 86 92 95 64 125 142 126 114 234 353 268 250 125 172 196 230 213 259 239
233 233 225 226 219 213 210 215 205 207 220 204 199 191 190 135 129 199 218 224 207 155 144 65 59 355 59 62 40 63 51 123 100 170 203 297 286 190 163 183 281 217 231 243
226 231 228 227 223 216 218 214 219 222 167 235 214 179 180 167 171 360 189 172 178 179 88 98 167 201 200 207 152 66 80 74 120 124 178 226 243 170 182 176 297 348 221 218
221 227 227 225 220 218 216 213 218 214 226 236 189 183 183 169 149 148 153 164 168 196 97 117 162 228 166 178 179 167 113 51 178 190 263 286 244 151 149 99 253 331 343 231
219 218 224 221 217 217 216 215 213 215 224 234 218 206 181 174 176 154 161 108 193 58 129 155 215 196 215 157 167 177 168 158 194 102 146 269 151 122 180 233 337 335 331 282
224 214 213 217 214 214 214 216 211 218 223 242 230 227 212 199 190 177 179 179 183 206 99 248 105 193 129 163 225 9 246 194 182 188 210 223 195 222 225 291 291 300 311 323
223 220 208 216 213 213 213 216 204 210 228 252 249 242 228 224 226 208 163 207 209 206 227 171 192 232 137 174 233 205 247 175 207 128 237 248 264 257 272 286 283 300 303 284
213 214 208 213 214 210 211 210 205 203 198 227 244 233 237 235 229 233 236 239 235 213 216 228 159 184 190 224 265 199 190 143 188 262 286 283 282 304 322 336 325 328 327 314
210 203 206 208 208 201 203 206 207 198 196 206 250 251 226 224 227 222 222 224 232 229 212 159 235 232 186 215 17 230 192 186 179 228 233 273 292 311 315 311 313 319 315 318
208 198 194 200 201 192 182 208 213 202 206 316 310 250 222 209 207 209 213 219 225 218 199 205 223 221 215 204 240 232 244 246 255 267 288 297 296 302 303 305 319 326 325 328
204 193 186 192 198 189 179 193 212 190 188 218 284 277 209 191 170 177 187 195 196 204 213 226 238 206 213 265 260 247 292 282 284 286 292 293 289 288 295 291 290 293 291 295
193 183 178 179 187 189 190 159 156 171 176 197 182 258 262 187 163 136 160 170 185 202 229 210 223 207 224 255 343 323 269 265 267 268 268 271 279 284 286 287 286 285 288 287
171 171 163 158 180 184 180 158 158 169 182 186 208 193 216 171 133 129 141 163 127 191 212 242 178 199 220 211 4 322 304 287 283 282 277 277 276 280 284 286 286 283 282 282
160 155 141 159 183 158 154 158 177 188 220 210 217 196 217 167 148 101 114 161 166 167 232 205 225 256 279 280 295 308 313 293 283 286 287 285 283 284 286 286 286 286 287 289
152 143 138 143 140 137 148 164 178 194 225 210 198 184 158 188 132 154 188 178 181 204 177 190 248 263 251 339 332 331 327 315 306 293 284 280 279 278 279 277 273 274 274 275
157 133 130 134 154 162 165 192 235 194 218 188 160 169 161 156 155 108 153 169 188 232 149 207 252 233 337 346 345 357 359 348 331 325 311 303 298 294 289 281 273 273 274 271
123 120 142 166 169 171 196 186 202 207 185 180 147 136 146 140 146 92 144 177 216 138 203 227 221 160 20 357 352 360 15 15 359 346 334 325 316 309 303 294 286 271 270 272
114 147 132 188 188 222 192 181 169 185 161 143 138 124 138 133 128 136 179 185 183 228 233 230 176 177 229 326 345 340 352 1 356 350 347 341 335 326 322 311 299 286 268 266
131 147 189 195 210 206 193 167 135 141 145 142 124 111 125 130 156 193 136 173 231 222 226 205 174 199 277 319 338 338 341 343 342 345 347 346 343 338 334 331 322 303 281 270
154 174 119 149 148 156 165 158 136 149 147 146 125 130 139 150 158 161 198 197 221 233 189 168 178 205 300 334 334 337 335 342 340 335 337 345 347 344 343 343 339 326 306 289
155 188 182 161 137 156 164 162 157 159 154 141 141 138 173 109 167 212 195 212 214 168 164 164 159 267 318 325 332 327 321 327 334 336 337 333 339 348 349 351 349 346 337 317
Wind_Speed_850mb
22 23 25 22 16 11 15 8 2 13 26 7 5 8 11 3 6 8 6 5 8 14 13 11 6 8 8 7 10 10 4 8 7 5 2 2 3 7 8 7 7 3 2 13
23 22 24 23 18 14 16 7 8 14 31 8 5 6 6 7 4 8 7 8 9 4 11 6 9 6 0 6 9 9 11 1 3 2 2 6 6 7 8 9 5 11 8 11
24 21 24 23 22 19 21 7 2 8 22 10 13 9 8 8 9 10 8 4 5 5 5 4 8 8 2 4 6 8 7 5 11 11 8 9 8 8 8 8 6 8 14 14
26 22 23 28 29 24 23 13 8 8 5 8 12 11 4 9 9 11 9 4 11 13 11 6 8 5 4 0 6 2 8 8 7 10 11 9 10 10 17 19 12 16 6 20
30 25 24 32 35 30 31 9 9 8 5 5 12 10 11 15 6 9 7 9 8 11 13 16 14 13 9 12 3 11 2 5 6 9 2 11 11 17 24 27 7 23 26 45
35 27 23 32 41 40 25 32 11 5 5 8 10 9 14 16 9 10 5 12 7 7 14 10 5 13 8 18 16 14 9 9 6 9 4 8 13 20 21 11 9 17 18 27
39 33 27 26 43 48 43 29 21 10 6 7 10 6 15 13 13 5 2 6 9 4 19 30 28 30 29 21 16 9 11 9 2 6 5 4 11 5 10 18 16 35 23 14
43 38 33 29 35 47 54 41 27 18 5 12 9 11 6 7 5 7 7 9 4 30 11 7 7 7 4 6 9 5 4 8 2 5 7 13 11 8 12 13 16 20 42 29
48 43 36 34 31 40 49 55 39 20 6 14 20 15 18 9 6 3 4 3 15 9 7 5 10 11 11 7 4 7 8 10 7 4 7 10 11 5 12 7 11 6 29 16
51 45 38 35 34 35 43 45 51 36 14 21 21 10 12 17 11 6 4 8 11 8 4 4 6 9 9 10 14 11 6 2 9 4 7 16 14 12 15 1 12 24 12 18
53 48 40 37 34 34 39 48 48 48 34 21 26 25 19 17 15 9 16 10 4 6 2 7 8 8 13 8 9 14 16 15 8 5 4 16 21 15 12 7 12 21 20 12
56 49 42 39 36 35 33 38 49 49 33 17 35 28 27 23 17 17 23 7 8 16 5 2 3 5 3 8 9 1 6 14 12 20 14 5 34 18 21 27 37 36 31 28
60 50 45 42 38 34 33 33 42 40 29 31 43 34 31 40 27 23 11 9 11 6 9 10 5 8 8 8 12 8 8 10 7 4 11 28 45 46 49 48 53 53 50 56
65 49 49 45 38 33 31 31 38 45 15 11 19 29 49 48 38 44 43 34 15 8 8 8 5 5 12 6 6 9 8 17 10 11 19 40 51 24 11 24 26 41 55 46
70 59 54 49 41 33 28 28 34 49 24 10 7 11 18 30 44 50 36 38 36 22 8 3 5 6 5 4 1 7 17 13 9 10 14 6 27 38 49 62 70 67 50 46
74 62 59 50 44 35 25 14 35 47 42 5 3 6 14 21 28 32 36 35 32 25 15 12 13 13 11 7 12 12 46 46 39 32 41 44 54 52 58 63 43 42 39 49
74 63 58 52 44 38 27 11 9 50 41 8 7 7 9 17 20 22 22 26 18 18 10 11 10 11 16 4 31 13 16 31 48 51 55 65 66 58 86 97 103 93 95 96
71 62 58 47 40 34 22 8 17 48 36 11 3 6 4 17 11 11 17 17 19 13 7 6 8 6 10 10 5 12 30 49 64 72 79 90 92 91 94 84 86 88 90 87
75 65 54 42 28 19 24 23 23 38 13 10 7 7 8 17 8 10 12 13 4 7 5 8 11 5 13 10 8 23 36 31 50 61 69 71 77 88 94 86 86 84 88 90
84 75 36 14 24 24 39 25 16 18 14 13 7 9 7 14 8 4 9 4 5 3 9 6 6 7 27 35 39 27 30 45 57 56 59 54 65 70 73 76 76 77 74 75
86 26 18 38 53 28 9 9 10 13 8 19 15 28 9 17 7 6 7 5 6 5 5 6 5 5 6 20 21 20 21 26 33 37 45 54 62 77 84 88 86 92 85 75
55 42 65 61 14 12 8 8 4 9 13 20 18 19 12 15 9 10 8 6 4 7 14 5 6 7 4 16 20 21 22 25 33 35 41 45 50 54 62 72 83 85 88 83
86 28 18 17 13 10 15 18 10 8 17 28 29 14 16 11 7 8 5 8 7 14 5 7 8 10 2 9 19 25 29 37 41 44 46 49 50 48 52 61 60 70 77 77
17 18 14 12 11 13 11 9 10 18 30 53 53 19 11 8 7 5 8 6 5 7 7 11 5 16 5 6 16 29 37 41 45 52 54 55 55 58 53 49 48 51 64 69
14 17 13 16 17 11 18 20 26 29 62 60 32 14 10 5 8 6 4 7 9 11 9 6 19 10 10 13 19 29 37 41 44 50 57 57 55 57 59 48 45 41 46 53
20 14 9 6 14 8 22 28 36 55 59 49 12 8 9 6 6 8 11 8 14 8 7 21 17 6 3 14 21 27 35 39 43 44 50 58 58 55 56 49 43 38 36 38
13 5 18 18 11 18 32 37 43 60 57 6 8 10 9 7 6 8 9 10 6 20 29 24 11 4 12 15 21 27 32 38 43 45 46 48 57 54 55 57 53 45 36 30
Wind_Direction_850mb
260 250 248 246 249 268 229 214 223 191 175 127 125 168 203 243 261 210 254 174 178 190 167 176 228 213 203 154 164 160 193 134 185 198 332 135 213 188 162 126 212 61 121 270
265 251 239 233 233 233 193 230 226 188 185 161 221 253 257 237 233 222 206 226 199 193 178 182 192 192 23 171 155 167 189 251 11 305 12 357 234 196 121 110 102 203 153 261
264 254 235 220 219 211 196 217 193 186 198 178 146 164 230 214 222 240 220 198 138 135 184 241 176 184 175 186 184 151 138 154 187 202 199 130 190 190 192 146 148 183 230 280
255 251 230 213 211 205 197 210 250 183 211 231 161 165 188 187 210 214 204 223 206 183 189 170 197 133 132 58 161 71 135 220 187 258 234 187 214 185 182 204 200 203 255 219
247 243 228 211 206 201 209 207 182 188 166 148 149 164 218 188 215 180 236 196 227 198 187 188 206 149 193 199 165 170 301 198 155 281 123 199 255 234 208 221 242 270 280 277
240 235 230 213 205 203 207 218 219 186 174 150 127 213 203 205 183 223 223 211 166 189 237 228 218 183 132 159 152 174 163 148 127 264 0 304 280 233 188 182 213 203 218 245
235 227 228 221 210 207 206 209 211 202 246 181 196 182 197 214 216 232 174 197 169 223 130 110 98 86 92 95 64 125 142 126 114 234 353 268 250 125 172 196 230 213 259 239
233 233 225 226 219 213 210 215 205 207 220 204 199 191 190 135 129 199 218 224 207 155 144 65 59 355 59 62 40 63 51 123 100 170 203 297 286 190 163 183 281 217 231 243
226 231 228 227 223 216 218 214 219 222 167 235 214 179 180 167 171 360 189 172 178 179 88 98 167 201 200 207 152 66 80 74 120 124 178 226 243 170 182 176 297 348 221 218
221 227 227 225 220 218 216 213 218 214 226 236 189 183 183 169 149 148 153 164 168 196 97 117 162 228 166 178 179 167 113 51 178 190 263 286 244 151 149 99 253 331 343 231
219 218 224 221 217 217 216 215 213 215 224 234 218 206 181 174 176 154 161 108 193 58 129 155 215 196 215 157 167 177 168 158 194 102 146 269 151 122 180 233 337 335 331 282
224 214 213 217 214 214 214 216 211 218 223 242 230 227 212 199 190 177 179 179 183 206 99 248 105 193 129 163 225 9 246 194 182 188 210 223 195 222 225 291 291 300 311 323
223 220 208 216 213 213 213 216 204 210 228 252 249 242 228 224 226 208 163 207 209 206 227 171 192 232 137 174 233 205 247 175 207 128 237 248 264 257 272 286 283 300 303 284
213 214 208 213 214 210 211 210 205 203 198 227 244 233 237 235 229 233 236 239 235 213 216 228 159 184 190 224 265 199 190 143 188 262 286 283 282 304 322 336 325 328 327 314
210 203 206 208 208 201 203 206 207 198 196 206 250 251 226 224 227 222 222 224 232 229 212 159 235 232 186 215 17 230 192 186 179 228 233 273 292 311 315 311 313 319 315 318
208 198 194 200 201 192 182 208 213 202 206 316 310 250 222 209 207 209 213 219 225 218 199 205 223 221 215 204 240 232 244 246 255 267 288 297 296 302 303 305 319 326 325 328
204 193 186 192 198 189 179 193 212 190 188 218 284 277 209 191 170 177 187 195 196 204 213 226 238 206 213 265 260 247 292 282 284 286 292 293 289 288 295 291 290 293 291 295
193 183 178 179 187 189 190 159 156 171 176 197 182 258 262 187 163 136 160 170 185 202 229 210 223 207 224 255 343 323 269 265 267 268 268 271 279 284 286 287 286 285 288 287
171 171 163 158 180 184 180 158 158 169 182 186 208 193 216 171 133 129 141 163 127 191 212 242 178 199 220 211 4 322 304 287 283 282 277 277 276 280 284 286 286 283 282 282
160 155 141 159 183 158 154 158 177 188 220 210 217 196 217 167 148 101 114 161 166 167 232 205 225 256 279 280 295 308 313 293 283 286 287 285 283 284 286 286 286 286 287 289
152 143 138 143 140 137 148 164 178 194 225 210 198 184 158 188 132 154 188 178 181 204 177 190 248 263 251 339 332 331 327 315 306 293 284 280 279 278 279 277 273 274 274 275
157 133 130 134 154 162 165 192 235 194 218 188 160 169 161 156 155 108 153 169 188 232 149 207 252 233 337 346 345 357 359 348 331 325 311 303 298 294 289 281 273 273 274 271
123 120 142 166 169 171 196 186 202 207 185 180 147 136 146 140 146 92 144 177 216 138 203 227 221 160 20 357 352 360 15 15 359 346 334 325 316 309 303 294 286 271 270 272
114 147 132 188 188 222 192 181 169 185 161 143 138 124 138 133 128 136 179 185 183 228 233 230 176 177 229 326 345 340 352 1 356 350 347 341 335 326 322 311 299 286 268 266
131 147 189 195 210 206 193 167 135 141 145 142 124 111 125 130 156 193 136 173 231 222 226 205 174 199 277 319 338 338 341 343 342 345 347 346 343 338 334 331 322 303 281 270
154 174 119 149 148 156 165 158 136 149 147 146 125 130 139 150 158 161 198 197 221 233 189 168 178 205 300 334 334 337 335 342 340 335 337 345 347 344 343 343 339 326 306 289
155 188 182 161 137 156 164 162 157 159 154 141 141 138 173 109 167 212 195 212 214 168 164 164 159 267 318 325 332 327 321 327 334 336 337 333 339 348 349 351 349 346 337 317